WorldView Legion 6

operational
NORAD ID: 62901 Int'l Des: 2025-025 Owner: MAXARI Country: US
LEOCIRCULAR

About WorldView Legion 6

Description loading...

Live Position

Loading 3D Globe...

Upcoming Passes

Altitude History

Altitude vs Time

uPlot chart will show altitude changes over time

Two-Line Element Set

1 62901U 25025B 25315.24873532 .00009035 00000-0 47524-3 0 9994
2 62901 44.9950 298.9393 0017547 322.5926 37.3730 15.15898262 42564
Epoch: Nov 11, 2025 • Age: 14 hours

Current Status

Altitude 519.9 km
Velocity 7.61 km/s
Sub-Earth Point 35.67°N, 16.67°W
Launch Date Feb 4, 2025
Age 0.7 years
Type earth observation

Technical Details

Classification Payload
Mass 700.00 kg
Dry Mass 630.00 kg
Total Mass 700.00 kg
Length 3.00 m
Diameter 2.00 m
Span 5.00 m
Shape Box + panel
Manufacturer MAXSI
Bus Type Legion
Phase Status In Orbit
Owner/State MAXARI/US

Large Constellations

Loading constellations...